GFSGBSN_850_rhum_252.txt.gz
RH
99 98 99 98 97 98 99 99 99 98 79 48 24 22 22 22 22 21 20 19 18 19 19 19 17 15 17 27 20 20 26 39 35 36 38 49 50 48 54 54 50 47 40 37 38 38 40
92 97 98 98 97 87 97 97 99 99 82 42 27 26 27 26 24 21 19 18 17 18 20 22 21 18 23 57 14 22 36 39 35 39 45 50 52 57 57 54 55 47 49 47 43 40 42
97 96 94 97 77 97 97 98 96 95 54 34 33 30 28 26 23 20 18 16 14 16 18 23 26 22 37 14 14 33 36 34 38 44 45 44 43 51 57 57 51 48 58 55 48 44 45
94 86 82 77 88 96 92 70 56 46 38 35 32 29 27 25 22 19 16 14 13 15 20 26 26 36 38 15 21 42 42 38 44 48 46 49 47 44 51 50 52 55 54 69 47 38 40
69 61 80 93 84 75 71 66 48 35 44 44 40 36 31 28 26 22 18 14 16 20 26 28 29 39 35 27 19 24 42 37 42 50 47 50 47 46 48 66 77 70 73 67 54 36 35
66 76 84 84 80 81 76 68 42 18 14 21 21 25 36 42 43 40 28 23 31 47 45 37 65 82 34 28 30 30 33 39 49 52 55 54 50 64 70 81 75 74 72 62 60 42 40
74 78 89 86 84 82 79 74 59 35 18 8 6 5 4 8 21 43 40 22 42 56 77 46 43 30 33 34 42 45 37 43 52 56 72 60 76 88 73 71 58 62 67 71 58 46 46
78 79 91 90 84 83 80 76 64 35 16 9 6 5 4 3 2 17 41 45 62 53 75 29 24 58 47 56 54 51 43 49 56 77 67 72 89 66 60 63 67 68 74 68 56 46 48
86 96 99 100 99 93 85 77 59 30 11 8 7 6 5 4 10 40 37 63 68 72 80 46 40 36 36 35 59 52 45 50 63 77 78 86 66 58 64 68 74 71 70 65 63 54 51
99 100 99 97 99 99 90 72 49 22 10 8 7 6 6 5 14 6 61 69 62 62 77 55 42 47 55 46 56 44 52 51 66 75 75 80 61 63 64 72 70 77 56 56 60 64 79
98 100 99 97 96 97 74 62 77 83 51 16 13 11 9 8 6 6 48 64 62 72 72 41 46 55 51 42 55 57 48 60 75 69 68 74 56 73 71 63 53 63 51 54 56 67 71
96 93 92 85 63 86 95 99 94 94 94 44 14 12 13 13 10 11 37 53 63 78 73 56 61 66 60 57 59 72 63 57 63 70 70 66 49 55 60 52 54 50 58 67 69 76 94
62 46 40 64 95 95 93 94 92 92 95 77 27 11 13 14 14 20 37 66 86 95 39 60 70 75 66 70 65 84 81 83 88 87 89 68 66 57 48 58 54 61 74 94 93 98 89
79 75 75 95 96 91 90 90 99 92 92 45 29 20 12 12 11 67 52 88 96 48 65 50 55 75 82 72 68 90 93 91 84 77 87 94 74 64 60 59 72 78 75 89 91 99 88
95 94 96 94 98 92 89 89 89 86 86 22 18 18 44 96 93 49 93 95 74 64 51 50 46 81 80 69 58 93 95 93 81 78 89 94 90 59 59 55 56 80 81 61 85 89 97
96 91 94 92 93 92 92 91 88 85 90 25 21 27 62 52 86 62 78 63 70 59 70 50 58 55 72 64 79 88 95 76 77 75 65 66 83 62 64 58 62 70 66 87 92 97 98
92 89 96 93 81 88 74 80 91 90 82 27 18 56 52 47 54 83 82 67 77 87 78 79 78 72 62 61 52 64 73 65 67 69 70 70 75 73 74 82 83 82 84 80 82 87 89
93 96 84 75 75 68 80 90 89 90 88 24 35 72 44 47 56 92 96 97 96 75 81 70 75 95 92 90 94 65 65 54 54 47 77 77 86 82 85 70 65 59 71 77 93 93 90
95 90 92 84 84 92 94 93 92 90 91 48 49 74 44 54 95 84 60 43 43 38 63 66 90 92 72 90 91 94 90 62 61 70 84 88 99 93 89 71 68 89 76 68 74 81 88
93 90 91 91 90 89 80 91 91 86 65 54 71 90 62 55 62 60 70 55 50 50 62 44 53 65 53 57 68 90 78 70 56 65 66 82 97 92 92 60 78 86 83 79 78 95 74
90 88 85 86 89 88 94 83 73 79 65 60 71 80 84 90 69 77 66 59 52 48 45 40 50 68 88 65 59 69 67 61 49 73 63 85 96 90 82 80 78 80 85 78 88 78 85
96 90 89 90 87 87 88 88 72 69 79 72 73 79 77 87 83 68 61 56 65 50 51 50 66 52 59 80 80 94 73 63 72 69 63 82 94 90 71 78 95 96 87 93 98 99 100
87 83 84 89 88 92 92 88 87 86 83 97 86 88 94 76 85 75 64 66 67 85 43 38 49 60 50 54 55 53 52 54 62 75 63 68 94 91 93 69 66 96 94 89 97 93 95
85 84 86 89 87 91 88 87 87 87 90 92 94 96 98 85 74 65 65 62 63 60 53 41 42 52 50 42 42 42 55 64 62 62 68 91 86 84 92 84 96 93 89 74 85 87 86
91 89 96 94 87 94 90 86 88 90 78 78 83 93 97 97 78 68 70 94 61 51 49 45 47 49 47 48 79 85 69 53 53 62 62 69 74 97 93 90 78 93 90 91 90 90 87
89 91 89 88 89 86 88 88 83 91 71 74 68 84 95 98 84 69 72 73 74 68 65 54 47 40 50 70 88 95 85 59 62 60 48 53 61 84 92 90 84 87 80 94 93 93 92
93 89 87 86 87 86 89 89 90 89 68 79 70 87 98 98 88 95 96 91 65 74 92 72 74 62 59 81 83 91 91 92 91 89 90 73 91 94 89 89 89 85 80 66 95 93 92
89 86 86 88 87 87 88 87 88 90 72 86 91 99 97 96 87 89 96 96 87 74 91 67 60 70 78 91 96 89 89 81 92 93 94 91 96 92 90 95 96 93 62 77 93 91 94
93 87 86 88 85 87 87 88 87 89 75 88 90 90 86 100 85 86 78 67 70 58 86 86 77 77 80 95 96 98 88 93 94 100 83 95 98 99 98 96 95 96 96 96 96 99 99

GFSGBSN_850_rhum_255.txt.gz
RH
94 98 98 97 90 96 97 97 99 99 84 52 30 26 25 24 23 21 19 18 17 16 16 17 19 20 18 24 16 16 31 34 38 39 39 46 50 50 55 53 54 57 48 42 40 41 44
95 91 92 93 88 95 98 93 85 62 47 33 30 29 27 25 23 21 19 17 16 14 15 16 20 24 25 54 14 15 24 40 38 37 40 49 51 54 59 60 58 53 54 54 49 46 47
89 85 75 74 96 90 65 63 50 44 42 39 34 29 26 24 22 22 20 18 16 12 14 18 22 28 39 14 14 22 40 43 40 39 44 45 48 49 59 59 54 50 61 56 49 45 49
61 60 76 88 77 70 70 56 35 21 20 28 32 30 32 34 32 30 26 22 16 15 16 21 27 45 36 15 16 20 41 44 42 49 48 48 45 45 53 52 52 61 57 66 44 43 39
63 73 79 80 82 81 78 72 55 32 18 11 12 11 12 14 22 35 39 36 20 22 28 29 41 59 33 22 17 22 39 42 46 52 51 51 50 48 51 68 71 70 72 73 59 40 40
73 84 87 83 84 84 81 77 67 46 20 10 7 5 4 4 3 4 16 44 27 46 60 44 77 82 31 26 30 31 31 46 44 52 55 56 52 68 75 77 70 63 83 72 67 50 47
77 88 94 90 94 81 80 72 60 38 18 9 7 6 5 4 4 7 38 35 39 50 78 46 45 35 28 35 35 40 35 41 47 56 74 62 75 87 77 74 54 62 69 76 68 55 53
88 94 98 97 96 90 87 77 63 42 20 10 8 7 6 5 5 38 12 56 69 71 86 43 38 51 48 51 52 53 46 49 60 78 71 77 92 68 64 66 71 73 80 82 63 53 52
98 99 99 100 100 99 99 82 57 47 43 16 12 11 9 7 6 29 22 72 69 76 91 55 47 47 40 42 66 53 51 47 64 83 84 87 70 61 69 73 77 79 83 75 68 60 57
98 99 99 98 97 92 80 58 68 80 79 45 15 12 12 11 11 8 29 74 69 76 90 65 51 51 57 51 66 43 54 45 69 74 81 85 65 68 76 79 74 89 68 66 66 68 82
98 94 92 91 74 80 95 95 93 92 92 93 44 14 9 16 16 14 28 49 66 75 50 29 47 55 53 49 55 57 60 56 79 77 76 76 69 83 82 68 70 76 55 65 59 68 74
73 58 42 78 95 95 94 92 92 98 92 54 20 18 21 16 14 20 26 60 72 79 74 48 58 68 60 57 58 74 55 65 61 70 73 70 54 58 69 61 60 54 62 68 78 79 95
64 92 97 97 96 92 91 95 91 91 88 26 12 12 18 22 24 30 72 76 86 95 32 45 72 76 66 70 65 83 85 72 88 92 82 73 72 66 52 62 59 65 77 93 97 98 92
94 100 99 99 100 89 95 94 93 90 85 23 11 12 21 84 93 53 81 91 98 44 59 53 57 80 77 72 69 88 92 88 81 77 90 96 78 69 64 63 74 79 74 91 97 98 89
95 91 96 94 91 91 92 86 92 84 89 36 16 13 57 54 59 83 92 95 70 66 78 73 52 89 86 77 58 94 98 92 82 83 90 97 92 61 63 58 58 80 84 63 86 93 99
91 95 89 74 76 67 71 79 91 91 91 42 21 31 46 48 48 84 74 65 74 80 80 77 68 62 75 68 82 92 97 80 80 78 67 68 87 66 64 59 62 72 67 86 92 97 99
96 86 85 88 93 92 93 93 91 89 58 39 23 35 38 39 46 83 93 81 90 70 76 94 94 91 86 94 76 59 86 83 67 69 77 72 78 73 76 82 88 78 79 77 74 86 88
93 91 90 91 92 93 93 92 88 88 84 37 36 60 38 40 65 81 93 90 90 52 51 86 88 88 92 91 85 87 95 88 79 81 94 98 100 96 80 69 68 59 65 75 94 93 90
90 91 89 88 91 88 87 91 95 92 74 56 54 63 40 40 80 79 59 50 51 48 75 51 76 78 71 84 90 90 78 83 80 93 96 94 98 97 93 72 70 82 76 64 76 81 92
89 94 90 88 90 89 92 87 86 91 63 58 67 92 58 59 61 71 82 63 52 44 49 52 45 59 48 49 75 80 66 66 50 59 90 90 93 91 90 91 96 98 95 82 73 87 78
96 90 89 89 88 89 90 90 88 90 75 70 63 79 92 94 69 87 78 66 59 56 44 43 50 67 84 62 49 59 56 52 38 59 65 85 95 93 78 81 82 95 98 97 94 81 89
93 89 88 92 90 88 92 84 86 86 76 80 70 75 75 88 85 84 70 62 71 77 66 51 64 53 67 72 73 85 81 68 63 56 58 77 94 79 75 62 78 88 84 92 99 97 88
90 88 90 98 89 90 90 88 85 83 90 88 85 94 99 79 86 84 72 71 69 70 62 50 51 62 54 55 55 51 50 55 66 83 64 71 91 89 84 66 56 80 93 86 93 94 95
82 89 91 88 87 91 87 90 87 85 87 82 91 100 98 86 76 60 61 67 68 67 72 46 44 56 49 48 44 43 54 65 68 67 68 89 84 83 93 82 94 94 88 78 88 91 89
90 91 90 87 87 90 87 92 91 84 82 71 82 88 94 97 83 74 66 76 90 76 61 60 58 52 50 52 79 80 68 49 48 69 69 70 82 94 100 86 92 93 91 89 89 92 90
91 90 90 85 87 89 89 89 82 90 84 71 81 76 99 98 85 79 95 79 84 71 62 56 47 42 51 71 84 97 92 70 73 57 50 64 74 82 92 95 80 88 87 95 94 94 94
94 90 88 83 91 89 89 87 89 91 80 72 85 94 100 98 90 95 97 96 81 76 91 72 69 60 60 79 88 94 94 83 93 93 92 74 92 95 87 94 91 88 82 93 96 94 91
90 90 85 84 91 87 90 88 90 89 88 75 84 94 96 97 84 95 91 95 94 78 84 65 60 70 79 90 95 93 98 91 92 98 98 95 98 92 87 96 97 93 62 83 96 95 97
96 86 84 88 90 87 89 90 87 92 78 74 88 95 90 100 86 88 81 85 77 78 88 89 81 81 86 96 97 100 88 96 94 99 87 95 97 100 100 98 96 96 96 97 96 96 98

GFSGBSN_850_rhum_261.txt.gz
RH
90 82 78 90 84 73 69 58 59 70 64 58 34 24 23 22 23 24 25 25 24 22 20 19 16 15 21 30 15 14 36 39 38 40 38 40 50 51 60 60 57 63 57 51 49 48 48
65 87 91 74 84 83 84 82 67 56 41 21 14 12 15 17 17 17 17 20 24 28 28 25 20 24 45 64 13 12 26 41 40 40 41 44 46 46 51 59 63 58 59 58 54 53 54
96 75 76 87 95 95 98 89 68 61 49 33 14 9 7 7 7 6 6 5 6 15 29 36 27 68 71 16 16 14 14 36 44 41 41 43 50 51 58 65 61 57 63 58 53 56 57
79 89 85 86 91 94 99 98 78 60 42 35 18 9 7 6 5 5 4 10 20 25 34 41 38 96 50 19 16 20 20 37 52 48 46 46 51 56 57 57 53 62 64 60 37 55 46
90 96 90 97 93 92 98 99 90 65 62 57 33 16 11 9 8 7 5 9 6 20 45 51 74 86 47 26 22 20 31 39 59 50 52 51 49 50 55 62 61 65 58 74 55 49 44
90 97 100 98 94 95 98 100 96 93 86 61 48 17 8 7 8 9 8 8 13 42 69 94 98 92 42 29 34 25 25 60 56 54 57 55 55 70 78 71 66 64 80 76 64 51 56
100 99 97 92 89 90 88 96 94 95 95 90 52 20 6 4 3 4 10 10 29 56 86 60 56 46 34 32 42 41 30 68 53 59 77 64 78 85 67 71 53 52 66 69 67 60 63
99 99 86 87 89 88 94 94 95 95 65 46 28 17 10 5 4 8 16 60 97 93 94 48 23 54 53 50 52 52 40 57 60 78 78 80 89 68 64 73 70 73 75 75 67 64 67
91 90 91 78 86 94 94 92 99 93 73 32 32 31 16 9 6 32 26 92 84 98 99 79 68 74 57 57 72 56 50 59 67 83 82 82 71 69 66 79 80 81 78 80 66 67 67
61 45 87 96 95 93 95 99 99 90 81 30 32 50 21 12 13 10 64 94 37 99 98 62 57 58 61 62 81 55 52 51 70 74 87 79 65 78 84 80 71 78 72 66 72 81 82
60 94 99 99 99 92 99 98 96 87 60 22 22 24 21 49 48 62 66 32 48 89 40 26 54 61 66 62 57 64 66 57 79 82 81 74 89 81 83 81 71 77 70 77 79 87 79
96 95 99 100 99 88 90 88 91 91 46 25 20 35 57 50 53 56 48 79 94 64 52 38 64 75 66 59 56 78 65 64 62 75 78 68 66 78 74 68 66 67 68 72 75 77 94
98 98 99 99 94 86 89 88 86 88 72 30 23 29 42 34 40 51 51 47 88 79 37 74 81 70 79 68 66 85 75 84 86 88 87 82 86 68 64 74 71 69 80 97 97 95 84
100 100 100 88 86 86 88 83 82 86 86 29 23 23 41 24 25 38 59 86 94 50 81 78 76 76 84 81 70 85 86 88 73 78 87 88 89 83 72 66 79 79 74 87 86 94 88
92 91 89 89 88 89 86 85 87 85 82 27 25 20 30 28 39 46 78 97 94 91 76 86 70 81 75 73 81 98 89 93 97 96 97 96 86 66 73 64 57 87 93 64 86 94 91
92 92 91 88 84 92 83 86 87 89 80 23 18 26 26 30 66 79 90 81 91 80 67 76 85 85 90 83 80 87 97 94 93 95 96 97 96 67 69 61 64 75 68 89 90 98 100
95 89 89 89 89 92 86 90 91 89 68 32 21 28 29 30 35 44 88 79 82 68 68 91 89 88 88 82 74 82 95 93 88 89 95 93 99 79 80 86 86 82 86 78 73 79 83
94 90 92 96 90 88 90 84 87 89 76 30 30 44 34 31 59 72 92 82 59 70 56 65 75 69 85 77 73 85 90 93 48 83 94 96 95 96 88 68 70 67 74 77 87 93 75
93 92 92 92 91 92 93 88 88 93 75 44 53 50 38 40 84 84 74 67 59 57 58 57 60 65 63 72 76 77 67 57 54 47 83 87 95 91 96 86 80 88 77 72 75 79 96
94 93 92 89 90 90 90 89 86 91 58 42 56 80 55 61 68 79 96 78 64 50 54 53 52 44 52 50 50 75 52 45 42 47 60 67 91 95 93 94 90 92 92 98 98 85 82
94 92 92 92 90 89 90 90 90 92 67 50 61 78 89 93 73 93 92 83 74 72 71 55 58 57 73 67 56 61 51 50 43 49 68 68 91 71 59 61 92 95 94 94 95 95 97
92 92 93 92 90 93 92 89 92 88 81 72 86 89 85 95 93 92 79 72 71 68 73 68 73 56 80 76 66 66 80 71 66 54 62 63 78 54 52 33 59 82 85 88 90 92 93
98 100 92 91 91 90 96 88 92 85 95 92 92 89 97 76 88 90 67 71 78 71 72 68 79 69 59 54 59 55 55 60 62 73 74 81 89 95 87 51 49 64 92 87 89 90 94
98 98 97 92 91 89 96 87 93 89 96 93 84 98 98 88 83 68 72 76 77 74 84 76 76 83 56 56 39 47 61 70 77 80 72 87 94 82 95 73 78 94 87 82 89 92 90
91 91 93 97 90 88 98 89 92 94 90 95 83 90 99 97 82 73 75 84 88 78 87 76 68 74 53 50 82 73 58 46 62 73 83 76 90 100 96 93 93 89 86 88 91 91 89
99 92 97 97 92 87 96 91 91 92 94 96 78 85 95 100 84 83 96 93 98 96 85 59 56 52 56 74 81 93 92 75 85 65 56 50 86 93 95 94 95 90 78 91 94 91 94
95 93 96 92 98 91 95 95 86 91 94 90 74 88 95 98 84 89 96 98 91 95 95 92 82 69 58 79 90 99 97 88 98 96 96 72 90 98 91 95 93 88 90 95 95 93 93
98 94 95 93 92 97 91 97 86 92 91 94 78 82 99 95 85 86 99 92 94 97 98 78 72 75 80 88 92 94 98 97 93 97 100 95 100 100 88 96 98 93 69 76 95 96 98
95 95 93 95 92 98 86 97 87 92 96 92 76 88 100 96 88 90 89 98 94 91 98 94 90 86 94 96 96 96 92 97 96 99 88 92 94 99 96 98 96 96 98 99 99 100 100

GFSGBSN_850_rhum_267.txt.gz
RH
79 81 86 89 82 73 55 39 24 22 34 41 32 20 10 8 7 6 6 5 4 4 5 12 16 16 29 62 44 25 19 24 21 71 43 40 38 34 31 26 27 30 28 23 27 27 31
85 87 84 85 83 82 67 36 25 42 51 30 14 8 6 6 6 7 7 6 6 4 4 6 8 29 79 67 29 22 18 77 76 62 44 41 36 33 30 26 29 26 29 27 27 28 29
96 94 95 96 88 77 60 42 37 56 51 51 26 9 3 2 2 2 2 4 7 7 6 5 10 45 97 42 38 24 17 75 79 59 43 39 36 33 32 29 29 34 37 31 29 30 31
98 100 99 95 83 74 62 42 77 87 90 62 29 10 5 4 3 2 1 1 1 4 8 9 24 98 88 42 40 30 22 63 76 68 48 44 43 41 32 36 38 41 37 39 17 21 26
93 97 99 90 78 63 40 93 96 95 95 67 34 9 5 5 2 2 2 2 2 5 18 53 96 97 60 50 39 39 39 55 76 72 58 51 50 43 43 47 40 32 32 27 20 24 23
88 88 83 80 54 34 59 94 96 94 89 46 13 10 8 8 4 4 6 8 14 37 92 95 97 92 56 39 50 35 38 51 66 68 59 51 48 44 43 50 51 30 26 25 18 20 27
90 89 68 40 43 90 95 95 93 91 88 36 12 10 9 10 16 10 13 39 44 62 67 61 55 66 56 48 50 51 50 63 61 57 56 47 50 52 42 39 35 22 26 20 19 17 29
78 43 29 60 92 93 95 94 94 91 61 20 13 10 8 14 18 19 55 68 86 87 89 60 52 54 51 53 55 47 56 54 52 54 42 44 58 36 32 31 34 32 31 28 18 16 28
24 37 86 95 94 94 94 94 91 48 16 12 13 9 5 8 16 27 77 60 81 89 87 39 49 61 64 70 58 46 59 50 44 50 44 51 42 38 38 36 39 39 37 32 26 19 33
60 95 97 96 94 94 94 80 32 10 8 10 8 9 8 7 26 37 36 33 65 96 67 30 47 61 49 69 60 55 45 46 40 47 42 44 35 38 41 40 36 53 35 32 31 33 46
97 99 95 92 94 94 91 46 23 8 8 8 8 11 10 10 29 40 38 29 63 98 66 43 49 57 34 48 56 60 60 54 52 41 37 46 49 47 48 37 38 47 32 31 36 41 41
96 95 91 93 94 95 91 66 42 10 7 10 11 15 14 12 36 41 23 31 87 65 60 53 46 38 32 36 48 58 61 61 55 49 39 34 33 39 35 34 34 32 45 42 42 47 79
94 94 93 94 96 79 92 93 35 12 8 8 13 14 14 39 38 26 32 68 63 47 32 50 47 37 30 54 42 51 58 84 66 87 69 46 45 39 42 45 37 44 60 90 92 94 66
95 98 93 95 92 93 93 72 35 15 10 6 11 16 30 25 14 33 75 35 43 44 47 38 39 35 31 49 42 46 67 90 93 89 90 74 72 45 44 47 61 60 66 71 73 70 54
96 95 99 95 93 96 90 40 63 13 9 7 10 21 33 16 14 43 54 49 52 52 44 47 39 37 32 31 34 37 59 89 91 91 90 90 76 38 36 46 41 64 78 47 76 59 85
96 100 92 94 97 94 82 79 71 41 8 9 13 36 30 18 22 31 25 44 35 38 37 35 42 45 47 39 39 37 39 76 77 53 78 91 84 67 44 47 48 61 56 82 94 86 81
96 95 95 91 95 95 94 92 93 81 7 11 45 28 22 18 36 36 35 36 37 35 37 38 42 45 54 51 36 35 64 75 35 41 69 83 91 67 89 77 70 99 99 99 76 48 70
97 92 95 95 94 94 92 93 92 90 15 22 49 18 21 33 26 28 41 51 48 38 34 36 34 37 37 34 31 32 69 50 33 38 64 89 87 79 65 60 88 58 69 69 79 65 55
84 96 95 93 92 92 93 90 92 90 38 37 40 35 46 41 31 30 33 37 35 37 38 42 42 34 32 34 39 30 30 23 23 32 53 41 81 77 47 82 82 93 92 89 84 79 80
89 92 95 92 91 92 90 96 89 94 58 58 45 31 30 36 46 44 47 36 38 32 42 47 40 31 36 33 31 38 33 24 26 35 37 28 40 73 80 79 82 89 85 83 88 94 80
94 91 88 94 94 90 92 97 89 93 73 80 51 38 60 40 32 41 41 43 44 41 39 38 39 45 56 54 39 33 37 33 27 36 28 35 56 34 34 30 30 77 90 88 90 93 93
90 95 94 96 92 97 92 95 96 90 74 77 65 60 51 50 47 44 41 38 42 42 44 45 46 43 44 67 66 72 54 48 42 28 36 39 58 50 46 25 36 88 82 89 88 89 91
94 95 91 87 95 96 96 90 95 94 87 89 83 88 91 50 37 37 35 42 44 42 44 40 43 47 47 51 70 51 47 43 38 46 50 56 63 53 47 28 32 82 91 88 89 90 92
96 95 90 90 93 82 94 96 80 89 90 83 91 96 86 57 34 35 36 40 43 43 54 49 71 71 79 68 52 39 32 36 40 47 49 70 57 48 57 35 48 82 68 86 86 88 85
99 97 96 96 93 92 88 90 92 94 94 76 83 90 96 65 39 36 39 44 42 39 41 56 60 57 55 50 44 36 26 39 44 46 50 48 51 60 61 66 76 77 78 82 87 90 90
92 96 96 96 98 81 81 83 85 95 89 87 83 86 97 89 41 57 55 47 52 44 36 45 50 59 55 37 42 55 39 32 35 44 37 41 46 58 56 59 85 78 64 71 82 89 84
99 98 97 98 92 92 93 89 85 90 88 91 93 84 97 92 59 74 60 71 74 67 58 38 52 50 48 35 40 41 44 50 48 46 52 41 54 64 57 78 74 76 71 77 89 88 76
98 97 92 97 95 75 90 91 89 93 94 97 96 86 84 94 70 73 95 91 78 75 66 49 47 64 45 53 47 54 47 77 54 70 71 62 76 63 60 69 82 83 57 72 88 83 85
94 96 94 94 95 89 90 80 84 84 89 97 98 93 80 99 76 88 83 90 96 91 96 67 64 60 66 62 67 49 51 56 72 56 62 75 87 82 87 85 87 92 93 97 97 91 90

GFSGBSN_850_rhum_270.txt.gz
RH
90 87 89 98 85 57 38 23 16 22 36 36 19 6 3 2 2 2 3 4 6 6 5 4 4 7 16 71 55 31 28 24 20 18 42 42 36 33 42 31 30 35 30 25 24 24 30
96 95 95 98 86 64 36 27 31 65 77 49 32 7 4 2 2 1 1 1 1 2 5 7 7 9 54 70 34 33 27 44 45 43 61 41 36 35 33 33 32 26 27 28 28 26 26
99 99 98 86 76 56 55 83 94 97 82 44 13 4 3 2 1 1 1 1 1 1 1 4 9 20 90 23 26 44 38 27 75 71 60 40 38 35 32 35 31 27 36 34 30 30 32
93 94 92 82 67 66 94 89 93 76 43 16 6 4 2 2 2 2 1 1 2 2 2 5 13 93 86 36 35 24 40 34 76 74 56 43 39 38 37 30 34 40 37 53 31 28 27
88 87 84 53 42 77 94 95 79 38 22 6 3 3 2 3 5 4 3 3 8 14 21 33 92 97 74 51 46 47 46 43 56 74 66 51 46 45 40 48 49 49 52 46 38 23 25
90 76 34 25 50 86 95 95 59 13 3 2 3 3 4 4 9 3 4 9 32 62 81 92 88 78 58 42 48 47 42 42 52 75 66 56 49 56 54 56 75 64 47 38 33 26 27
64 20 20 43 75 96 95 76 18 5 2 3 3 3 4 3 8 18 19 18 26 65 33 57 56 54 61 50 47 48 50 50 48 66 80 58 66 71 54 47 47 44 39 31 25 20 33
18 28 58 56 91 68 72 24 21 17 6 4 2 2 3 4 9 28 46 56 77 69 85 36 47 56 52 62 54 44 42 54 56 67 63 64 75 50 38 39 46 47 50 43 32 24 31
24 49 69 85 41 52 35 34 45 26 4 3 2 3 2 3 7 16 34 42 65 87 74 44 48 54 55 39 56 59 52 45 53 64 62 74 51 45 42 42 45 47 49 43 40 29 27
67 73 93 34 28 69 32 46 19 5 4 3 4 4 3 3 12 31 37 22 50 97 79 45 48 48 35 30 48 48 52 48 51 57 50 57 46 44 50 49 42 55 37 38 41 47 56
88 94 54 75 65 36 52 19 6 4 3 3 4 4 3 9 30 31 28 24 66 96 85 40 44 36 31 28 39 72 59 56 55 55 43 56 46 51 51 49 44 52 39 44 46 49 51
84 91 56 91 33 74 13 6 5 4 3 3 4 6 4 4 5 8 22 37 90 93 82 50 34 34 34 28 28 38 38 72 81 61 52 63 41 40 45 39 38 34 46 45 46 55 88
94 51 76 50 79 58 6 6 5 3 3 3 4 7 6 15 10 10 41 69 84 73 31 46 42 35 34 32 35 34 40 85 91 92 90 62 60 48 38 52 44 45 64 96 95 95 77
80 95 80 46 80 19 8 13 6 4 3 3 4 8 10 7 5 23 47 66 43 35 40 34 35 32 36 35 40 33 39 82 89 91 90 95 90 52 41 55 57 55 68 89 84 84 72
74 97 92 32 88 68 19 11 18 6 3 3 5 11 31 6 8 24 44 57 42 54 37 39 36 39 40 36 40 38 44 87 80 84 94 94 69 42 55 48 49 66 75 53 83 77 96
97 92 96 60 95 95 66 21 22 7 4 4 8 30 35 11 29 27 31 36 31 32 30 33 42 35 47 46 48 37 47 70 52 46 74 92 90 54 66 69 56 68 53 82 79 98 98
95 97 96 94 94 92 96 78 36 32 6 5 27 36 32 9 31 38 47 34 33 33 32 35 44 43 39 39 36 34 45 70 32 35 63 84 95 63 48 99 96 79 96 100 86 77 76
95 96 96 93 94 93 97 93 62 91 16 7 48 32 32 17 39 26 54 48 44 38 32 32 35 40 41 34 41 37 70 73 25 29 71 73 90 93 60 77 96 94 95 93 96 80 68
80 92 92 93 93 93 93 94 92 92 58 45 61 37 36 30 39 36 31 36 32 31 33 37 44 40 38 37 51 44 30 22 29 34 68 55 79 91 58 90 73 93 93 91 84 96 92
96 99 98 94 98 94 94 89 94 91 60 72 60 36 33 30 40 38 46 43 42 31 36 38 37 33 41 48 40 49 45 37 31 33 32 31 65 70 77 78 66 73 92 93 93 95 94
94 100 100 94 96 90 94 82 78 94 62 77 49 39 55 54 41 43 46 45 45 43 37 35 40 44 54 60 54 45 47 45 37 35 30 50 81 60 47 38 56 90 94 92 94 95 95
96 92 98 98 93 90 92 92 91 92 70 72 71 64 61 66 48 40 41 39 48 44 44 47 53 52 49 71 75 83 75 64 56 40 52 45 81 67 61 33 75 88 83 93 91 93 94
96 98 95 91 93 92 77 88 92 87 90 88 86 87 91 64 47 40 37 40 43 41 42 44 48 67 67 64 67 60 63 60 53 60 49 68 83 82 78 37 39 77 96 91 94 93 95
94 95 98 98 98 91 83 84 92 81 89 90 86 96 96 72 48 45 39 36 44 42 50 44 47 74 65 53 47 43 42 44 36 38 47 81 84 72 82 54 86 91 72 79 91 94 90
96 100 93 93 93 98 91 82 78 82 83 90 89 97 96 85 57 46 54 55 41 39 39 42 48 50 52 52 58 50 35 33 46 49 51 53 64 89 88 89 93 86 89 92 94 94 93
96 94 99 99 96 93 91 84 91 86 89 97 90 96 97 97 56 57 58 51 75 88 49 50 43 47 58 47 58 75 57 45 56 63 37 38 49 81 82 86 92 90 72 83 92 96 90
94 91 93 95 98 95 85 90 92 83 87 97 96 97 97 96 74 66 70 86 72 69 79 52 51 48 44 52 58 58 65 57 60 72 59 52 80 84 87 92 95 90 88 77 97 100 86
95 91 89 99 91 93 78 77 85 84 80 82 91 96 96 96 78 74 76 80 84 77 83 81 60 81 66 82 79 78 75 88 66 89 86 80 98 97 87 93 100 90 64 83 99 96 95
97 85 99 93 94 94 92 92 70 97 97 78 85 93 97 97 79 75 76 78 82 90 97 88 65 61 80 92 87 84 69 76 83 91 79 93 98 100 100 100 98 93 98 98 94 96 96

GFSGBSN_850_rhum_276.txt.gz
RH
96 75 66 39 19 29 42 33 21 15 3 2 1 1 1 1 1 1 1 1 1 1 1 1 1 1 4 27 9 20 37 35 41 44 40 35 46 63 58 56 50 55 48 42 38 35 37
86 72 53 18 21 60 60 27 10 4 2 1 1 1 1 1 1 1 1 1 1 1 1 2 2 2 24 36 31 48 45 38 42 71 59 47 40 52 48 46 55 45 45 43 38 37 37
79 51 22 16 80 77 39 15 8 3 2 1 1 1 1 1 1 1 1 1 2 3 8 14 9 14 54 14 48 46 50 47 39 46 73 64 33 62 43 46 38 41 48 44 42 37 41
60 22 17 62 57 48 15 13 5 2 1 1 1 1 1 1 1 1 1 1 2 10 14 22 48 74 38 59 53 46 49 47 47 50 51 68 69 57 63 49 43 43 47 57 40 41 36
19 23 72 58 47 22 13 6 2 2 2 2 2 1 1 2 1 1 1 2 2 23 10 65 88 79 61 58 35 29 35 42 39 43 43 70 77 69 50 59 62 59 72 66 48 36 35
17 53 59 42 23 13 11 3 2 2 2 2 2 2 2 2 2 1 1 2 9 24 13 55 42 50 49 37 27 39 51 54 40 30 52 63 73 64 72 67 82 73 76 60 54 34 38
52 90 33 23 9 15 6 2 2 2 2 2 2 2 2 2 3 4 3 3 11 13 29 49 52 55 51 21 28 52 53 53 47 49 60 73 92 85 74 63 54 48 52 54 47 38 40
93 72 48 19 15 14 3 2 2 2 2 2 2 2 2 2 2 8 13 20 57 48 64 51 48 40 36 12 14 22 34 56 61 72 60 69 95 70 60 61 65 63 64 63 49 45 43
84 62 30 22 26 6 3 3 2 3 3 3 3 3 3 2 2 5 28 40 61 82 78 51 43 34 26 17 21 32 37 59 80 87 74 77 68 67 76 79 76 70 74 65 54 43 41
65 96 29 78 20 4 4 3 3 3 4 4 4 4 4 3 4 5 23 61 68 78 75 51 39 34 21 27 34 32 40 46 63 96 95 70 54 55 59 72 67 77 55 56 56 62 71
57 89 20 62 17 5 3 4 4 4 4 4 4 4 5 4 4 8 18 39 80 92 38 41 40 25 26 31 34 36 37 41 87 74 79 66 64 82 95 62 66 92 56 58 56 62 65
57 44 29 87 36 6 4 4 4 4 3 3 3 3 4 4 5 6 12 27 72 66 61 50 37 36 35 32 35 27 40 32 54 66 69 66 58 65 74 63 80 76 78 66 59 67 97
97 49 14 90 54 24 10 6 4 4 3 3 3 3 6 10 9 7 12 49 61 66 30 41 41 38 39 38 38 33 57 73 78 93 73 61 60 64 59 79 59 98 98 92 97 96 81
86 93 40 52 69 64 34 16 7 4 4 3 3 3 4 17 14 11 13 28 31 42 50 39 38 38 44 41 39 36 67 88 76 93 94 98 83 64 39 96 95 90 98 89 91 95 76
72 88 83 89 96 91 56 39 20 9 6 4 3 3 10 22 14 12 19 59 36 56 43 43 38 46 45 42 44 50 75 91 83 82 81 98 72 41 54 50 81 88 99 75 97 86 87
65 96 94 94 96 95 95 89 70 26 11 6 4 5 22 27 20 19 38 27 37 38 41 41 50 43 57 53 50 52 69 80 71 59 73 86 94 47 38 59 85 96 92 97 97 96 96
54 97 92 98 98 98 97 94 93 62 23 12 7 15 35 27 22 23 58 50 41 37 41 45 48 53 55 58 53 53 65 62 46 43 79 93 95 59 54 94 94 86 93 91 95 96 96
44 92 99 97 98 99 99 98 95 79 51 20 26 23 36 33 35 56 76 67 44 48 39 44 44 52 52 50 58 56 71 67 53 52 65 70 84 100 58 94 94 94 95 94 96 92 93
98 96 98 100 97 96 96 89 96 83 61 53 67 54 42 31 57 59 48 46 42 42 41 40 50 41 45 55 69 78 63 42 49 51 69 62 83 82 56 80 77 93 93 89 86 95 94
98 100 100 95 91 94 95 94 77 72 67 51 62 68 49 47 51 57 69 61 52 42 46 42 44 41 54 63 58 81 62 50 49 54 42 42 85 70 93 74 85 91 92 90 90 95 95
99 95 89 92 91 86 91 82 90 80 81 62 60 69 67 76 61 71 70 61 65 76 62 44 50 60 75 71 65 63 59 59 53 50 42 56 78 84 69 71 85 89 94 93 93 95 96
92 92 87 98 100 97 93 77 94 81 84 79 69 68 71 75 77 67 57 62 68 63 64 70 70 62 76 89 80 86 90 84 75 61 65 59 84 89 86 77 76 83 78 94 94 95 95
93 89 94 93 87 76 74 83 77 68 90 100 91 89 96 81 80 71 63 63 68 65 52 48 53 68 71 62 64 64 62 64 68 83 80 75 96 96 96 80 82 80 97 92 94 94 95
97 97 93 99 97 99 96 84 86 78 86 100 100 98 98 86 83 66 57 69 70 62 68 57 52 78 54 52 52 54 64 70 70 78 70 88 92 90 100 64 97 96 85 75 91 94 94
98 100 99 89 95 98 89 69 67 80 75 98 94 98 97 95 73 66 70 70 62 61 72 60 52 52 48 51 71 70 54 46 61 67 69 70 81 94 96 99 92 92 93 94 94 96 95
98 99 93 98 98 96 94 93 97 98 95 98 96 90 99 97 90 74 65 66 88 94 80 63 52 54 51 58 80 96 85 70 71 93 46 50 67 86 91 97 99 92 76 91 96 94 95
98 95 99 96 96 97 93 95 98 97 89 94 92 96 99 97 87 77 92 88 70 84 96 83 72 66 57 68 84 93 96 93 94 90 87 67 88 98 98 100 100 86 93 86 91 100 93
91 98 82 94 96 98 100 97 93 92 89 86 88 86 98 97 85 86 96 90 84 86 98 76 72 90 81 92 95 95 95 96 94 98 100 94 100 100 96 100 97 90 78 81 94 99 100
94 98 98 97 98 96 87 90 91 95 92 85 87 82 98 98 97 93 97 81 82 76 92 90 85 89 89 92 96 96 95 92 96 100 90 95 96 97 93 95 95 100 100 100 96 97 100

GFSGBSN_850_rhum_279.txt.gz
RH
67 43 18 11 30 24 15 4 2 1 1 1 1 1 1 1 1 1 1 1 1 2 2 2 2 2 2 6 22 40 46 42 38 73 60 55 67 69 66 60 54 64 52 46 43 37 39
67 27 15 24 42 19 3 2 2 1 1 1 1 1 1 1 1 1 1 1 1 2 5 6 6 6 7 13 52 53 46 40 37 42 64 70 64 48 65 56 60 49 50 44 44 43 43
38 11 22 38 27 8 4 3 2 2 2 1 1 1 1 1 1 1 1 1 1 4 5 4 16 19 26 62 55 41 31 46 48 46 45 47 75 69 59 60 48 47 58 49 48 47 48
13 14 69 54 25 12 5 2 2 2 2 2 1 1 1 1 1 1 1 1 2 11 6 17 40 51 47 55 29 29 40 36 31 36 43 44 40 70 76 64 60 51 56 65 42 44 41
6 36 73 72 31 12 3 2 2 2 2 2 2 2 2 1 1 1 1 2 6 14 14 31 39 47 56 30 29 48 26 45 47 24 33 38 49 60 72 81 84 70 79 72 51 41 41
19 49 70 47 26 10 3 3 2 2 2 2 2 2 2 2 2 1 2 2 14 20 22 33 39 39 40 32 11 35 28 26 44 47 37 53 54 80 80 78 81 77 83 67 61 40 42
35 40 82 29 14 4 3 2 2 2 2 2 2 2 2 2 2 2 2 4 8 9 49 51 47 46 35 11 13 29 27 33 32 44 76 59 93 92 80 63 64 67 68 66 53 40 48
19 41 22 49 12 3 3 3 3 3 3 3 3 2 2 3 3 5 5 33 54 46 59 51 50 32 20 23 26 31 24 36 62 81 77 77 79 58 71 81 75 77 80 77 56 41 51
41 45 19 36 5 3 3 3 3 3 3 3 3 3 2 3 3 4 16 59 76 82 78 49 44 20 25 22 31 34 26 36 77 80 83 98 70 53 58 84 99 98 95 75 73 49 47
95 40 63 33 6 4 3 4 3 3 3 3 3 3 3 3 3 4 10 25 74 82 72 53 38 30 27 20 30 30 29 34 56 85 90 95 68 57 64 75 65 96 89 71 77 83 92
96 46 87 66 21 10 5 4 3 3 3 3 3 3 3 4 5 8 16 20 68 85 42 40 38 22 29 28 34 30 32 29 69 71 67 67 62 79 82 65 77 88 72 96 91 98 79
99 59 98 99 92 26 10 6 4 3 3 3 3 3 3 5 8 8 11 26 75 59 33 47 36 38 36 32 33 28 39 29 43 66 55 50 40 48 59 58 66 63 99 96 97 97 97
96 96 95 95 71 29 18 10 5 4 3 3 3 3 3 6 12 8 9 30 59 68 23 36 42 37 40 41 36 37 55 74 64 70 54 55 55 58 33 83 60 83 97 96 92 96 90
100 99 99 95 97 68 34 16 8 6 4 3 3 3 5 18 17 12 11 24 28 33 52 40 40 35 46 43 39 41 54 79 77 89 96 98 77 47 29 74 84 74 95 93 80 72 67
82 98 96 94 96 93 92 51 18 12 8 5 3 4 15 26 21 14 20 47 31 53 44 43 38 45 44 41 44 51 60 93 84 79 82 98 57 36 32 33 84 85 94 94 96 84 92
68 97 96 98 100 98 99 96 79 50 20 11 6 7 29 27 19 17 33 26 38 40 40 45 50 44 59 55 58 56 65 70 85 68 69 85 96 36 40 60 61 93 91 89 96 96 81
58 93 99 100 100 100 93 99 98 94 40 17 10 18 32 29 22 23 58 50 44 38 40 50 51 54 56 64 56 59 62 64 62 64 84 92 90 56 55 93 95 84 93 91 95 95 96
74 98 100 99 100 95 100 100 92 94 59 26 30 20 39 30 39 60 74 67 42 47 42 51 47 56 56 51 64 61 72 70 59 52 78 71 85 100 62 91 89 94 95 94 96 94 93
99 100 100 99 88 83 86 97 88 85 74 56 59 53 40 30 63 62 52 52 47 44 43 43 48 46 44 56 73 69 66 45 49 54 80 70 86 85 62 66 69 95 91 90 90 95 96
95 98 95 97 97 92 84 92 81 85 72 68 54 70 50 45 53 60 69 65 56 47 54 47 47 44 53 63 60 80 63 47 51 50 51 46 83 71 96 89 91 94 90 89 89 95 95
96 92 89 99 100 94 98 95 69 89 84 67 61 69 66 73 62 70 70 64 63 68 67 56 60 58 72 80 64 66 54 62 57 54 44 60 74 83 81 80 86 87 93 93 93 96 96
98 97 98 85 96 80 88 70 78 83 78 67 74 64 76 72 76 79 64 66 63 66 77 75 78 61 72 88 78 80 79 86 87 65 71 68 78 87 92 81 77 85 81 83 90 95 95
100 98 92 95 98 86 98 90 78 78 94 91 85 88 95 83 86 83 75 61 63 65 56 53 57 66 69 65 62 54 55 64 67 82 77 86 96 96 99 78 84 81 99 94 93 93 95
94 94 99 99 92 88 98 88 73 68 95 96 97 98 98 86 84 73 63 56 63 69 71 56 59 76 55 54 48 48 72 85 83 82 72 91 93 91 100 64 97 98 86 72 91 95 94
90 94 88 83 84 95 94 89 87 91 99 99 98 98 98 96 81 74 72 70 95 67 73 67 56 58 56 53 72 75 62 65 75 83 80 72 90 96 96 99 91 96 94 95 97 97 95
96 93 87 98 88 93 93 96 100 100 98 100 98 98 98 97 75 74 96 95 90 88 72 64 59 52 55 58 82 97 88 83 84 94 62 52 63 82 93 95 97 97 82 96 97 98 95
96 94 96 82 90 97 98 99 95 88 88 97 99 92 95 97 96 96 93 89 88 83 91 83 77 66 62 72 87 96 98 94 93 90 87 67 88 98 99 100 96 89 94 93 92 89 93
94 98 98 98 98 96 100 90 89 88 90 96 93 92 96 98 96 97 92 94 95 76 90 70 70 89 86 93 94 94 96 98 94 98 100 95 98 100 97 100 97 92 82 85 91 100 100
98 97 96 92 86 91 89 93 95 81 89 90 80 82 90 99 98 98 98 96 94 70 72 86 81 94 89 94 96 90 90 93 97 100 89 96 97 96 92 96 96 100 100 100 98 97 100